Wind_Speed
7 9 7 5 4 4 5 5 3 1 1 2 3 5 6 4 4 6 6 8 8 6 4 3 3 3 2
9 8 6 7 8 6 5 4 4 2 2 1 1 3 3 3 4 4 2 3 4 4 5 6 6 5 5
8 10 6 9 10 9 7 7 6 4 3 4 4 8 8 6 5 4 4 4 5 6 7 8 7 6 4
8 8 7 12 11 11 10 7 6 3 3 3 3 4 3 2 2 2 3 4 4 3 4 4 4 6 7
11 8 9 12 13 13 10 9 5 3 4 4 2 3 3 2 2 3 5 5 5 5 4 3 3 3 3
11 15 13 14 14 14 12 7 3 4 4 5 3 4 2 0 0 1 1 4 4 4 3 2 2 2 3
13 15 13 14 14 13 12 8 5 5 4 6 4 5 3 2 0 2 2 2 3 3 3 4 4 3 3
10 11 9 12 11 10 9 9 8 5 5 4 5 5 4 3 2 2 2 3 3 4 4 5 6 6 7
8 9 9 8 8 10 12 13 4 5 4 4 5 4 4 5 5 4 3 3 3 3 5 5 5 4 7
10 10 10 8 8 7 8 14 5 4 6 4 4 2 3 6 6 7 6 6 4 3 3 3 4 6 9
10 9 10 8 8 7 8 8 8 4 7 4 6 3 2 3 7 7 7 7 7 8 8 9 8 7 10
11 11 10 9 8 7 5 5 6 6 6 7 3 6 4 2 3 7 7 8 10 10 10 9 8 8 7
13 12 11 8 9 8 5 5 6 7 9 10 10 10 9 6 3 5 7 5 9 12 6 3 7 10 12
14 11 11 13 13 11 9 8 8 7 7 7 7 8 8 11 12 16 13 9 4 7 10 16 12 10 12
15 15 16 15 15 13 12 11 11 5 7 8 8 10 11 12 15 17 15 14 14 11 13 16 12 10 10
18 18 19 19 18 16 15 16 17 15 12 9 9 9 10 14 19 22 18 15 13 7 8 14 19 13 14
23 23 22 20 19 20 20 20 21 21 18 13 11 12 6 4 4 10 14 12 11 11 11 14 22 24 22
Wind_Direction
171 177 170 183 194 182 177 190 195 181 45 22 352 358 16 35 69 89 110 124 129 130 143 170 200 210 223
167 175 184 186 180 188 182 178 170 126 131 165 288 270 304 26 68 92 160 169 159 158 136 127 120 114 123
160 179 173 185 167 170 160 146 143 133 99 89 91 82 91 105 116 116 115 129 146 153 162 167 167 172 167
161 168 177 180 180 177 173 171 154 170 147 125 139 121 132 165 159 154 161 165 152 172 196 208 217 225 226
168 164 178 176 184 186 187 184 157 176 191 194 197 197 200 224 243 238 229 225 221 226 236 251 253 248 229
174 181 182 191 190 185 186 176 175 185 183 188 196 177 185 219 27 291 252 228 224 228 230 228 162 148 148
204 196 189 194 192 185 192 187 166 166 189 170 180 175 176 174 118 330 244 206 193 175 182 182 173 193 222
207 201 195 191 196 201 187 165 156 164 175 172 186 194 215 209 193 30 64 196 176 173 198 207 214 220 207
160 162 169 175 187 181 167 164 164 191 178 186 195 208 222 202 186 171 166 163 194 218 231 237 234 245 253
147 149 153 163 174 173 188 188 153 173 199 194 181 204 164 181 194 211 215 209 202 199 217 248 257 246 254
176 167 173 180 176 182 194 204 206 189 180 194 188 183 170 181 219 238 230 229 237 244 253 252 250 264 274
188 187 190 190 190 190 196 206 220 239 210 217 212 197 187 213 237 209 226 256 264 255 254 258 259 270 263
204 209 211 215 209 212 221 244 265 259 242 246 254 252 238 227 228 252 307 226 255 262 236 223 279 277 284
222 223 224 219 220 228 236 251 253 251 241 247 258 256 254 256 257 265 271 275 216 200 251 278 280 267 268
227 226 227 226 225 231 240 232 231 237 225 236 250 262 267 269 268 267 273 271 264 272 279 285 280 275 267
233 232 233 231 230 232 238 234 234 242 249 249 243 260 272 273 256 262 264 259 270 259 263 287 292 292 286
238 235 234 237 237 237 237 239 242 246 248 249 244 241 237 249 278 240 252 259 275 275 271 273 286 291 295
Height
825 826 828 829 832 834 832 833 833 831 832 832 832 832 831 832 833 833 834 836 837 839 840 841 843 844 846
822 826 827 828 829 832 833 833 832 832 832 831 832 833 833 833 834 834 835 837 838 839 840 842 843 844 846
819 822 825 826 827 831 832 831 832 832 832 832 832 833 834 835 835 836 837 838 838 839 840 842 842 843 845
816 821 823 826 827 829 831 833 829 833 832 832 833 833 835 836 836 836 837 838 839 840 841 841 841 843 844
814 817 822 824 824 828 830 830 829 830 832 832 833 834 835 835 835 836 837 838 839 840 840 840 841 842 843
813 815 816 820 823 825 827 828 828 829 831 832 833 833 834 834 835 835 835 836 837 838 839 839 840 842 843
812 813 814 817 821 822 825 825 826 829 831 831 833 833 834 834 834 834 835 836 836 837 838 839 840 841 842
811 811 814 816 820 821 823 824 827 829 829 830 831 832 833 833 833 834 834 835 836 836 837 838 839 840 840
811 811 813 816 819 819 821 824 828 828 828 829 829 830 831 831 833 834 834 835 835 835 836 836 837 838 839
811 812 813 816 818 819 821 823 824 826 826 828 828 829 830 830 831 832 833 833 833 834 834 835 835 835 836
811 812 814 816 817 818 820 822 823 824 824 826 826 827 828 829 830 830 830 831 831 832 832 832 832 833 833
811 812 813 815 817 819 819 820 822 822 822 824 825 826 827 828 828 828 828 829 829 828 828 829 829 829 829
810 811 812 816 817 818 818 819 820 820 821 822 823 824 824 825 826 826 827 826 825 825 825 826 826 826 825
808 810 812 814 815 816 817 818 819 819 819 820 821 821 822 822 823 823 824 824 822 822 823 822 822 821 822
806 808 810 811 812 813 815 816 817 817 817 819 819 819 819 820 819 818 818 819 818 818 818 816 817 817 817
803 804 806 807 808 809 811 812 813 814 815 816 817 817 817 815 813 812 814 814 814 814 815 813 811 812 813
797 799 801 803 804 804 805 807 808 809 811 813 813 815 815 814 811 810 810 810 811 811 811 810 807 806 807